Location: Kapuskasing
(49.3803°N, 82.4001°W)
Time: 12:39:07
(UTC-04:00)

Envisat - Visible Passes

Search period start: 07 October 2024 00:00
Search period end: 17 October 2024 00:00
Orbit: 762 x 764 km, 98.3° (Epoch: 07 October)

Date Brightness Start Highest point End Pass type
(mag) Time Alt. Az. Time Alt. Az. Time Alt. Az.
07 Oct 3.2 04:36:04 10° NNE 04:40:56 67° E 04:40:56 67° E visible
07 Oct 4.3 06:15:53 10° N 06:19:38 21° WNW 06:21:05 19° W visible
08 Oct 4.5 03:58:54 10° NNE 04:02:53 32° E 04:02:53 32° E visible
08 Oct 3.4 05:37:47 10° N 05:42:29 39° WNW 05:43:02 38° W visible
09 Oct 5.5 03:22:27 10° NE 03:24:50 16° ENE 03:24:50 16° ENE visible
09 Oct 2.9 05:00:04 10° NNE 05:04:59 77° NW 05:04:59 77° NW visible
09 Oct 4.7 06:40:41 10° NNW 06:43:19 14° NW 06:45:07 12° WNW visible
10 Oct 3.8 04:22:39 10° NNE 04:26:55 48° ENE 04:26:55 48° ENE visible
10 Oct 4.0 06:02:08 10° N 06:06:18 26° WNW 06:07:04 25° WNW visible
11 Oct 5.0 03:45:40 10° NE 03:48:51 24° ENE 03:48:51 24° ENE visible
11 Oct 3.2 05:24:11 10° N 05:29:00 50° WNW 05:29:00 50° WNW visible
12 Oct 5.8 03:09:49 10° ENE 03:10:48 12° ENE 03:10:48 12° ENE visible
12 Oct 3.2 04:46:33 10° NNE 04:50:56 65° NNE 04:50:56 65° NNE visible
12 Oct 4.5 06:26:42 10° NNW 06:30:00 18° NW 06:31:05 17° WNW visible
13 Oct 4.4 04:09:17 10° NNE 04:12:53 35° ENE 04:12:53 35° ENE visible
13 Oct 3.7 05:48:26 10° N 05:52:56 32° WNW 05:53:01 32° WNW visible
14 Oct 5.4 03:32:31 10° NE 03:34:49 18° ENE 03:34:49 18° ENE visible
14 Oct 3.2 05:10:36 10° N 05:14:57 57° NNW 05:14:57 57° NNW visible
14 Oct 4.8 06:51:48 10° NNW 06:53:38 12° NW 06:55:06 11° WNW visible
15 Oct 3.8 04:33:05 10° NNE 04:36:53 48° NE 04:36:53 48° NE visible
15 Oct 4.2 06:12:51 10° N 06:16:40 22° WNW 06:17:02 22° WNW visible
16 Oct 4.9 03:55:56 10° NNE 03:58:48 26° ENE 03:58:48 26° ENE visible
16 Oct 3.5 05:34:46 10° N 05:38:57 39° NW 05:38:57 39° NW visible
